Weather Roundup
Issued by NWS

Home | Current Version | Previous Version | Text Only | Print | Product List | Glossary On
Versions: 1 2 3 4 5 6 7 8 9 10 11 12 13 14 15 16 17 18 19 20 21 22 23 24 25 26 27 28 29 30 31 32 33 34 35 36 37 38 39 40 41 42 43 44 45 46 47 48 49 50
000
NZUS93 KARX 052310
HRRWXR

CURRENT HOURLY OBSERVATIONS ACROSS
MUCH OF THE UPPER MISSISSIPPI VALLEY
NATIONAL WEATHER SERVICE LA CROSSE WI
600 PM CDT TUE MAY 05 2015


...SOUTHEAST MINNESOTA...


CITY           SKY/WX    TMP DP  RH WIND       PRES   REMARKS
ROCHESTER      LGT RAIN  53  51  93 E14       30.17S FOG
ROCHESTER/MAYO CLOUDY    53  53 100 E12       30.16F
WINONA         DRIZZLE   55  52  88 SE12      30.18S
AUSTIN         CLOUDY    54  52  94 E12       30.14S
ALBERT LEA     DRIZZLE   54  54 100 E12       30.12F
DODGE CENTER   LGT RAIN  54  52  94 SE16      30.15S
PRESTON        CLOUDY    51  50  95 E10       30.16F FOG
OWATONNA       CLOUDY    55  52  88 E14G20    30.13F
FARIBAULT      RAIN      57  54  88 SE13      30.13F
$$

...ELSEWHERE IN MINNESOTA...


CITY           SKY/WX    TMP DP  RH WIND       PRES   REMARKS
MINNEAPOLIS    CLOUDY    66  49  54 E17       30.12F
INTNL FALLS    MOSUNNY   73  21  14 S9        30.07F
DULUTH         SUNNY     67  29  24 SE13      30.14F
RED WING       CLOUDY    63  48  59 SE13      30.14S
REDWOOD FALLS  CLOUDY    60  53  77 SE14G24   30.07F
MANKATO        CLOUDY    55  54  94 SE17      30.11F
WORTHINGTON    CLOUDY    61  54  77 SE15      30.05F
FAIRMONT       CLOUDY    57  52  82 SE15      30.08S
$$

...SOUTHWEST WISCONSIN...


CITY           SKY/WX    TMP DP  RH WIND       PRES   REMARKS
LA CROSSE      LGT RAIN  57  53  86 SE6       30.18F
PRAIRIE DU CHI CLOUDY    54  53  96 E8        30.16F
BOSCOBEL       LGT RAIN  55  52  89 NE5       30.19S FOG
LONE ROCK      CLOUDY    56  52  86 E12       30.20S
PLATTEVILLE    CLOUDY    56  54  94 E16       30.17F
FORT MC COY    DRIZZLE   55  49  82 E10       30.21S
CAMP DOUGLAS   CLOUDY    55  55 100 SE13      30.21S
VIROQUA        CLOUDY    53  53 100 E13       30.19S
WIS DELLS      NOT AVBL
$$

...ELSEWHERE IN WISCONSIN...


CITY           SKY/WX    TMP DP  RH WIND       PRES   REMARKS
MILWAUKEE      CLOUDY    47  42  83 NE8       30.25S
MADISON        CLOUDY    56  50  80 E12       30.21S
GREEN BAY      CLOUDY    64  24  21 SE7       30.25F
EAU CLAIRE     CLOUDY    66  36  32 SE17      30.17S
BLACK RVR FLS  LGT RAIN  61  43  52 SE6G16    30.20S
MEDFORD        PTSUNNY   62  29  28 SE10      30.21F
WAUSAU         CLOUDY    64  20  18 SE10      30.21S
WIS RAPIDS     CLOUDY    63  34  33 E10       30.23F
MARSHFIELD     CLOUDY    63  33  32 SE13G21   30.21F
RICE LAKE      PTSUNNY   68  28  22 SE15G22   30.18S
$$

...NORTHEAST IOWA...


CITY           SKY/WX    TMP DP  RH WIND       PRES   REMARKS
DECORAH        CLOUDY    54  54 100 E10       30.15F
MASON CITY     CLOUDY    55  54  96 E13       30.12F
CHARLES CITY   CLOUDY    55  55 100 E14       30.13S
OELWEIN        CLOUDY    57  57 100 E15       30.14S
$$

...ELSEWHERE IN IOWA...


CITY           SKY/WX    TMP DP  RH WIND       PRES   REMARKS
DES MOINES     CLOUDY    78  60  53 S7        30.03F
IOWA CITY      PTSUNNY   70  64  81 E13G18    30.10S
FORT DODGE     CLOUDY    66  63  88 E15       30.06S
$$

...NORTHERN ILLINOIS...


CITY           SKY/WX    TMP DP  RH WIND       PRES   REMARKS
CHICAGO-OHARE  CLOUDY    49  47  93 NE9       30.20S FOG
CHICAGO-MIDWAY CLOUDY    54  50  86 NE8       30.20S FOG
MOLINE         PTSUNNY   68  62  81 NE13      30.10F HAZE
ROCKFORD       CLOUDY    56  50  80 E10       30.20S
PEORIA         MOSUNNY   77  61  57 NE9       30.10S
$$

NOTE: "FAIR" INDICATES FEW OR NO CLOUDS BELOW 12,000 FEET WITH NO
SIGNIFICANT WEATHER AND/OR OBSTRUCTIONS TO VISIBILITY. WIND
SPEEDS ARE IN MILES-PER-HOUR.



USA.gov is the U.S. government's official web portal to all federal, state and local government web resources and services.